www.pogodaiklimat.ru
ПОГОДА в Виго
Время
(UTC), дата
07 14.10
08 14.10
09 14.10
10 14.10
11 14.10
12 14.10
13 14.10
14 14.10
15 14.10
16 14.10
17 14.10
18 14.10
19 14.10
20 14.10
21 14.10
22 14.10
23 14.10
00 15.10
01 15.10
02 15.10
04 15.10
05 15.10
06 15.10
07 15.10
08 15.10
09 15.10
10 15.10
11 15.10
12 15.10
13 15.10
14 15.10
15 15.10
16 15.10
17 15.10
18 15.10
19 15.10
20 15.10
21 15.10
22 15.10
23 15.10
00 16.10
01 16.10
02 16.10
03 16.10
04 16.10
05 16.10
06 16.10
07 16.10
08 16.10
09 16.10
10 16.10
11 16.10
12 16.10
13 16.10
14 16.10
15 16.10
16 16.10
17 16.10
18 16.10
19 16.10
20 16.10
21 16.10
22 16.10
23 16.10
00 17.10
01 17.10
02 17.10
03 17.10
04 17.10
05 17.10
06 17.10
07 17.10
08 17.10
09 17.10
10 17.10
11 17.10
12 17.10
13 17.10
14 17.10
15 17.10
16 17.10
17 17.10
18 17.10
19 17.10
20 17.10
21 17.10
22 17.10
23 17.10
00 18.10
01 18.10
02 18.10
03 18.10
04 18.10
05 18.10
06 18.10
09 18.10
10 18.10
11 18.10
12 18.10
13 18.10
14 18.10
15 18.10
16 18.10
17 18.10
18 18.10
20 18.10
21 18.10
22 18.10
23 18.10
00 19.10
01 19.10
02 19.10
03 19.10
04 19.10
05 19.10
06 19.10
07 19.10
08 19.10
09 19.10
10 19.10
11 19.10
12 19.10
13 19.10
14 19.10
15 19.10
16 19.10
17 19.10
18 19.10
19 19.10
20 19.10
21 19.10
22 19.10
23 19.10
00 20.10
01 20.10
02 20.10
03 20.10
04 20.10
05 20.10
06 20.10
07 20.10
08 20.10
09 20.10
10 20.10
11 20.10
12 20.10
13 20.10
14 20.10
15 20.10
16 20.10
17 20.10
18 20.10
19 20.10
20 20.10
21 20.10
22 20.10
23 20.10
00 21.10
01 21.10
02 21.10
03 21.10
04 21.10
05 21.10
Ветер
(напр.,м/с)
Видим. Явления Облачность Т
(С)
Тd
(С)
f
(%)
Тe
(С)
Тes
(С)
Комфортность P
(гПа)
Po
(гПа)
Тmin
(С)
Tmax
(С)
R
(мм)
R24
(мм)
S
(см)
Ю 4 н/о осадки н/о +11.6 +11.6 100 +9 +9 тепло 1008.1 977.6
Ю 2 н/о осадки н/о +11.7 +11.7 100 +11 +11 тепло 1009.2 978.6
Ю 3 н/о в посл. час осадки н/о +12.2 +12.2 100 +10 +10 тепло 1009.6 979.1 9
Ю 3 н/о в посл. час осадки н/о +13.1 +13.1 100 +12 +12 тепло 1010.2 979.8
З 2 н/о осадки н/о +12.1 +11.2 94 +11 +11 тепло 1011.5 980.9
СЗ 4 5000 м 3/3 300 м
[Frnb Ac As]
+13.2 +10.6 84 +11 +15 тепло 1012.4 981.9 2
З 5 н/о н/о +14.0 +10.2 78 +12 +12 тепло 1012.9 982.5
ЮЗ 3 н/о в посл. час осадки н/о +13.1 +9.7 80 +12 +12 тепло 1013.2 982.7
З 6 10 км 3/3 600 м
[St]
+14.7 +7.1 60 +13 +15 тепло 1014.0 983.6 0.5
З 6 н/о осадки н/о +11.0 +8.4 84 +8 +8 тепло 1015.7 984.8
СВ 1 н/о осадки н/о +12.3 +10.6 89 +12 +12 тепло 1016.1 985.4
З 2 9000 м 3/3 1000 м
[St]
+12.4 +9.0 80 +12 +12 тепло 1016.9 986.2 +14.8 2
З 2 н/о н/о +12.0 +9.4 84 +11 +11 тепло 1017.7 986.9
З 2 н/о н/о +11.0 +9.4 90 +10 +10 тепло 1018.1 987.2
З 2 10 км 5/4 600 м
[Frnb]
+10.1 +9.5 96 +9 +9 тепло 1019.0 988.0
Ю 3 н/о в посл. час осадки н/о +10.5 +9.6 94 +9 +9 тепло 1019.3 988.3
ЮЗ 3 н/о н/о +10.4 +10.1 98 +8 +8 тепло 1019.6 988.6
ЮЗ 3 10 км ясно +10.0 +10.0 100 +8 +8 тепло 1019.9 988.8 0.0
Ю 4 н/о в посл. час осадки н/о +10.2 +10.2 100 +8 +8 тепло 1019.9 988.8
Ю 3 н/о н/о +9.9 +9.9 100 +8 +8 тепло 1019.9 988.8
ЮЗ 3 н/о осадки н/о +9.4 +9.4 100 +7 +7 тепло 1020.0 988.8
ЮЗ 2 н/о н/о +9.7 +9.7 100 +8 +8 тепло 1019.9 988.8
Ю 4 н/о в посл. час осадки н/о +9.7 +9.7 100 +7 +7 тепло 1019.9 988.8 +9.4 0.0
Ю 4 н/о в посл. час осадки н/о +9.9 +9.9 100 +7 +7 тепло 1019.9 988.8
Ю 3 н/о в посл. час осадки н/о +10.4 +10.4 100 +8 +8 тепло 1020.3 989.3
Ю 4 900 м туман местами {дождь} 10/4 <50 м
[Frnb Ac As Cs]
+11.4 +11.4 100 +9 +9 тепло 1020.7 989.8 0.2
Ю 4 н/о в посл. час осадки н/о +11.6 +11.6 100 +9 +9 тепло 1020.4 989.5
Ю 4 н/о н/о +12.4 +12.4 100 +10 +10 тепло 1020.2 989.4
Ю 4 900 м морось {дождь, туман} 10/3 <50 м
[Frnb Ac As Cs]
+12.8 +12.5 98 +11 +13 тепло 1019.8 989.0 0.3
Ю 4 н/о н/о +14.3 +13.3 94 +13 +13 тепло 1019.3 988.7
Ю 5 н/о н/о +15.0 +13.7 92 +13 +13 тепло 1018.7 988.2
Ю 5 20 км 10/5 600 м
[Cu Sc Ac As Cs]
+15.0 +12.5 85 +14 +14 тепло 1018.5 988.0 0.0
Ю 6 н/о н/о +15.1 +12.7 86 +13 +13 тепло 1018.2 987.7
Ю 5 н/о осадки н/о +14.3 +13.0 92 +13 +13 тепло 1018.3 987.8
Ю 6 20 км 10/4 600 м
[Cu Sc Ac As Cs]
+14.1 +13.0 93 +12 +12 тепло 1018.4 987.8 +15.4 0.0
Ю 5 н/о н/о +13.8 +13.0 95 +12 +12 тепло 1018.4 987.8
Ю 5 н/о н/о +13.6 +13.1 97 +12 +12 тепло 1017.9 987.3
Ю 6 15 км 10/5 600 м
[Cu Sc Ac As Cs]
+14.1 +13.3 95 +12 +12 тепло 1017.9 987.4
Ю 6 н/о осадки н/о +13.8 +13.2 96 +12 +12 тепло 1018.1 987.5
Ю 6 н/о осадки н/о +13.6 +13.6 100 +11 +11 тепло 1018.0 987.4
Ю 7 15 км слаб. морось {дождь} 10/4 200 м
[Frnb Ac As Cs]
+13.5 +13.5 100 +11 +11 тепло 1017.7 987.1 0.4
Ю 7 н/о осадки н/о +13.3 +13.3 100 +11 +11 тепло 1017.3 986.7
Ю 6 н/о в посл. час осадки н/о +13.4 +13.4 100 +11 +11 тепло 1016.8 986.2
Ю 6 н/о осадки н/о +13.9 +13.9 100 +12 +12 тепло 1016.5 986.0 1
ЮЗ 7 н/о осадки н/о +14.2 +14.0 99 +12 +12 тепло 1016.1 985.6
Ю 7 н/о осадки н/о +14.2 +13.9 98 +12 +12 тепло 1015.8 985.3
Ю 8 15 км слаб. дождь 10/4 100 м
[Frnb Ac As Cs]
+14.2 +14.0 99 +12 +12 тепло 1015.9 985.4 +13.3 0.5
Ю 7 н/о осадки н/о +14.1 +14.1 100 +12 +12 тепло 1015.6 985.1
Ю 5 н/о осадки н/о +13.8 +13.8 100 +12 +12 тепло 1015.8 985.3
Ю 6 2000 м дождь 10/10 50 м
[Sc As op]
+13.8 +13.8 100 +11 +11 тепло 1015.7 985.2 2
Ю 8 н/о осадки н/о +13.9 +13.9 100 +11 +11 тепло 1015.7 985.2
Ю 8 н/о осадки н/о +14.4 +14.4 100 +12 +12 тепло 1015.1 984.7
Ю 8 100 м морось {дождь, туман} н/о +14.5 +14.5 100 +12 +12 тепло 1014.4 984.0 2
Ю 8 н/о осадки н/о +14.4 +14.4 100 +12 +12 тепло 1013.9 983.5
Ю 7 н/о осадки н/о +14.5 +14.5 100 +12 +12 тепло 1013.8 983.4
Ю 7 100 м слаб. дождь {туман} н/о +14.2 +14.2 100 +12 +12 тепло 1013.4 983.0 12
Ю 8 н/о осадки н/о +14.3 +14.3 100 +12 +12 тепло 1013.1 982.7
Ю 8 н/о осадки н/о +14.7 +14.7 100 +12 +12 тепло 1012.8 982.5
Ю 7 100 м дождь {туман} н/о +14.7 +14.7 100 +13 +13 тепло 1012.6 982.3 +14.8 9
Ю 5 н/о осадки н/о +15.3 +15.3 100 +14 +14 тепло 1012.5 982.3
Ю 7 н/о осадки н/о +15.6 +15.6 100 +14 +14 тепло 1012.5 982.3
Ю 4 200 м дождь {туман} н/о +15.7 +15.7 100 +15 +15 тепло 1012.9 982.7 8
Ю 6 н/о осадки н/о +15.5 +15.5 100 +14 +14 тепло 1013.4 983.2
Ю 5 н/о осадки н/о +15.4 +15.4 100 +14 +14 тепло 1013.5 983.2
Ю 2 100 м туман {дождь} н/о +15.5 +15.5 100 +15 +15 тепло 1013.5 983.3 3
Ю 3 н/о осадки н/о +15.6 +15.6 100 +15 +15 тепло 1013.7 983.5
ЮЗ 3 н/о в посл. час осадки н/о +15.8 +15.8 100 +15 +15 тепло 1013.7 983.5
Ю 3 100 м туман н/о +15.6 +15.6 100 +15 +15 тепло 1013.5 983.3 0.4
ЮЗ 4 н/о осадки н/о +15.1 +15.1 100 +14 +14 тепло 1013.9 983.6
ЮЗ 3 н/о в посл. час осадки н/о +14.7 +14.7 100 +14 +14 тепло 1014.6 984.2
Ю 1 30 км 9/9 1000 м
[Sc]
+14.4 +14.4 100 +15 +15 тепло 1015.2 984.8 +14.4 2
ЮЗ 2 н/о н/о +13.6 +13.6 100 +13 +13 тепло 1015.7 985.2
ЮЗ 2 н/о н/о +14.1 +14.1 100 +13 +13 тепло 1016.5 986.0
Ю 3 14 км 9/9 600 м
[Sc]
+14.3 +14.3 100 +13 +14 тепло 1016.9 986.4
З 2 н/о осадки н/о +14.1 +14.1 100 +13 +13 тепло 1017.1 986.6
ЮЗ 3 н/о осадки н/о +14.2 +14.2 100 +13 +13 тепло 1017.2 986.7
ЮЗ 3 3000 м 10/10 100 м
[Frnb]
+14.2 +14.2 100 +13 +13 тепло 1017.2 986.7 1
З 2 н/о осадки н/о +14.1 +14.1 100 +13 +13 тепло 1016.9 986.4
СЗ 3 н/о в посл. час осадки н/о +13.9 +13.1 95 +13 +13 тепло 1016.7 986.2
СЗ 2 8000 м 10/10 100 м
[Frnb]
+13.8 +13.2 96 +13 +13 тепло 1016.3 985.8 0.3
СЗ 3 н/о н/о +13.7 +12.6 93 +13 +13 тепло 1016.4 985.8
штиль 0 н/о н/о +13.6 +13.6 100 +13 +13 тепло 1016.6 986.0
СВ 1 3000 м 10/10 50 м
[Frnb]
+13.0 +13.0 100 +13 +13 тепло 1016.7 986.1 +14.6 0.0
Ю 2 н/о н/о +12.8 +12.8 100 +12 +12 тепло 1017.2 986.5
ЮЗ 4 н/о н/о +12.8 +12.8 100 +11 +11 тепло 1017.5 986.8
ЮЗ 3 800 м н/о +12.5 +12.5 100 +11 +11 тепло 1017.8 987.1
ЮЗ 3 н/о н/о +12.4 +12.4 100 +11 +11 тепло 1018.1 987.4
Ю 3 н/о в посл. час осадки н/о +12.2 +12.2 100 +10 +10 тепло 1017.8 987.0
Ю 3 н/о в посл. час осадки н/о +12.2 +12.2 100 +10 +10 тепло 1017.6 986.8 0.0
Ю 2 н/о осадки н/о +12.3 +12.3 100 +11 +11 тепло 1017.8 987.1
ЮЗ 2 н/о осадки н/о +12.2 +12.2 100 +11 +11 тепло 1017.9 987.1
ЮЗ 2 н/о н/о +12.2 +12.2 100 +11 +11 тепло 1017.8 987.0 0.0
ЮЗ 3 н/о н/о +12.0 +12.0 100 +10 +10 тепло 1017.7 986.9
Ю 3 н/о в посл. час осадки н/о +12.1 +12.1 100 +10 +10 тепло 1017.5 986.7
ЮЗ 2 н/о осадки н/о +12.2 +12.2 100 +11 +11 тепло 1017.7 986.9 +11.9 0.2
Ю 4 н/о н/о +13.0 +13.0 100 +11 +11 тепло 1018.0 987.3 0.2
Ю 4 н/о н/о +13.9 +13.9 100 +12 +12 тепло 1017.8 987.2
Ю 4 н/о н/о +15.0 +14.1 94 +14 +14 тепло 1017.3 986.9
Ю 2 25 км {дождь, туман} 9/8 300 м
[Sc Ac As]
+16.4 +14.9 91 +16 +17 тепло 1016.6 986.3
Ю 4 н/о н/о +16.4 +13.9 85 +16 +16 тепло 1015.7 985.5
Ю 3 н/о н/о +16.1 +14.4 90 +16 +16 тепло 1015.1 984.9
Ю 3 20 км 9/6 300 м
[Sc Ac As]
+15.8 +13.5 86 +15 +16 тепло 1014.6 984.3
Ю 3 н/о н/о +15.5 +13.2 86 +15 +15 тепло 1014.2 983.9
Ю 5 н/о н/о +14.5 +13.5 94 +13 +13 тепло 1013.8 983.4
Ю 5 20 км 10/10 600 м
[Sc]
+14.3 +13.8 97 +12 +12 тепло 1013.4 983.0 +17.2
Ю 5 н/о осадки н/о +13.6 +13.6 100 +12 +12 тепло 1012.5 982.1
Ю 4 200 м слаб. дождь {туман} ?/? +13.5 +13.5 100 +12 +12 тепло 1012.0 981.6 1
Ю 5 н/о осадки н/о +13.6 +13.6 100 +12 +12 тепло 1011.5 981.1
Ю 5 н/о осадки н/о +13.7 +13.7 100 +12 +12 тепло 1011.2 980.8
Ю 4 3000 м слаб. дождь {туман} 10/10 50 м
[Frnb]
+13.7 +13.7 100 +12 +12 тепло 1010.5 980.1 6
ЮЗ 3 н/о осадки н/о +13.6 +13.6 100 +12 +12 тепло 1010.1 979.7
З 2 н/о осадки н/о +13.4 +13.4 100 +13 +13 тепло 1009.7 979.3
С 1 4000 м дождь {туман} 10/10 50 м
[Frnb]
+12.9 +12.9 100 +13 +13 тепло 1008.8 978.4 7
С 1 н/о осадки н/о +12.4 +12.4 100 +12 +12 тепло 1008.4 978.0
СВ 1 н/о осадки н/о +12.2 +12.2 100 +13 +13 тепло 1007.4 977.0
В 1 2500 м дождь {туман} 10/10 50 м
[Sc]
+12.2 +12.2 100 +12 +12 тепло 1007.2 976.8 +12.1 8
штиль 0 н/о осадки н/о +12.0 +12.0 100 +11 +11 тепло 1007.0 976.5
СВ 2 н/о осадки н/о +11.8 +11.8 100 +10 +10 тепло 1007.2 976.7
С 3 900 м дождь {туман} 10/10 300 м
[Frnb]
+11.8 +11.8 100 +10 +10 тепло 1007.5 977.0 22
СВ 3 н/о осадки н/о +11.6 +11.6 100 +10 +10 тепло 1007.0 976.5
СВ 2 н/о осадки н/о +10.9 +10.9 100 +9 +9 тепло 1006.5 975.9
СВ 3 15 км дождь 10/8 1000 м
[Frnb As op]
+11.5 +10.4 93 +10 +10 тепло 1005.4 974.9 6
ЮВ 1 н/о в посл. час осадки н/о +13.0 +12.6 97 +13 +13 тепло 1003.7 973.5
З 3 н/о н/о +13.3 +12.1 92 +12 +12 тепло 1003.4 973.2
С 2 25 км 10/8 300 м
[Frnb As op]
+12.8 +12.5 98 +12 +12 тепло 1004.0 973.7 0.0
С 3 н/о н/о +12.9 +11.3 90 +12 +12 тепло 1004.1 973.8
С 6 н/о осадки н/о +10.9 +10.9 100 +7 +7 тепло 1004.9 974.4
С 6 4000 м дождь 10/8 300 м
[Frnb As op]
+10.8 +10.8 100 +8 +8 тепло 1005.5 975.0 +13.7 4
С 6 н/о осадки н/о +10.7 +10.5 99 +7 +7 тепло 1006.4 975.8
С 4 н/о в посл. час осадки н/о +10.7 +10.7 100 +8 +8 тепло 1007.0 976.4
С 3 20 км 10/8 600 м
[Frnb As op]
+10.5 +10.5 100 +8 +8 тепло 1007.7 977.1 0.4
С 3 н/о в посл. час осадки н/о +10.2 +10.2 100 +8 +8 тепло 1008.3 977.6
СВ 1 н/о н/о +10.1 +10.1 100 +9 +9 тепло 1009.0 978.3
С 2 15 км 10/10 300 м
[Frnb Ns]
+10.1 +10.1 100 +8 +8 тепло 1009.3 978.6 0.0
С 3 н/о н/о +9.9 +9.7 99 +8 +8 тепло 1009.6 978.8
С 3 н/о н/о +9.7 +9.4 98 +7 +7 тепло 1009.8 979.0
С 3 15 км 9/3 600 м
[Frnb As trans]
+9.7 +9.1 96 +8 +8 тепло 1010.0 979.2
С 1 н/о н/о +8.9 +8.9 100 +8 +8 тепло 1010.3 979.4
СЗ 2 н/о в посл. час осадки н/о +8.4 +8.4 100 +7 +7 тепло 1011.1 980.1
штиль 0 9000 м 8/5 600 м
[Frnb As trans]
+8.2 +8.2 100 +7 +7 тепло 1011.9 980.9 +8.0 0.0
штиль 0 н/о в посл. час осадки н/о +7.9 +7.9 100 +7 +7 тепло 1012.5 981.4
З 1 н/о н/о +8.5 +8.5 100 +8 +8 тепло 1013.6 982.5
ЮВ 1 10 км 3/3 600 м
[Cu hum Ci fib]
+12.3 +10.8 91 +12 +14 тепло 1013.5 982.9 0.0
СВ 2 н/о н/о +13.7 +11.3 85 +13 +13 тепло 1013.7 983.2
В 2 н/о н/о +15.1 +10.8 75 +15 +15 тепло 1014.0 983.6
СВ 2 н/о н/о +14.4 +11.2 81 +14 +14 тепло 1014.0 983.6
З 4 н/о н/о +14.1 +10.1 77 +13 +13 тепло 1014.0 983.5
З 5 н/о н/о +14.2 +11.2 82 +13 +13 тепло 1013.8 983.4
СЗ 3 10 км 3/3 300 м
[Cu med, cong As trans]
+14.0 +10.9 82 +13 +15 тепло 1014.5 984.0
СВ 2 н/о н/о +14.1 +10.5 79 +14 +14 тепло 1014.7 984.2
СЗ 2 н/о н/о +13.5 +10.5 82 +13 +13 тепло 1015.3 984.7
СВ 2 10 км 5/5 300 м
[Sc diur, vesp]
+11.9 +10.8 93 +11 +11 тепло 1016.2 985.4 +15.5
С 2 н/о н/о +11.1 +10.2 94 +10 +10 тепло 1016.9 986.0
СЗ 2 н/о н/о +10.6 +10.1 97 +9 +9 тепло 1017.1 986.2
С 3 10 км 3/3 600 м
[Cu hum]
+10.7 +10.7 100 +9 +9 тепло 1017.8 986.9
С 1 н/о н/о +9.5 +9.5 100 +9 +9 тепло 1018.3 987.2
С 1 н/о н/о +9.3 +9.3 100 +8 +8 тепло 1018.3 987.2
СЗ 1 2500 м дымка {туман} 3/3 300 м
[St]
+8.3 +8.3 100 +7 +7 тепло 1018.5 987.3
С 3 н/о н/о +9.1 +9.0 99 +7 +7 тепло 1018.8 987.6
СЗ 2 н/о н/о +8.3 +8.3 100 +7 +7 тепло 1018.7 987.5
штиль 0 3000 м туман местами ?/? +7.5 +7.5 100 +6 +6 тепло 1018.8 987.5
ЮЗ 1 н/о н/о +7.0 +7.0 100 +6 +6 тепло 1018.8 987.4
С 1 н/о н/о +7.1 +7.1 100 +6 +6 тепло 1019.1 987.7
Местоположение метеостанции Виго (Испания): широта 42.23 долгота -8.63 высота над уровнем моря 255 м.
В архиве по умолчанию представлена погода в Виго за последнюю неделю. Архивные данные за месяц целиком и за предыдущие месяцы, начиная с января 2011 года, Вы можете получить, выбрав интересующий диапазон дат из раскрывающегося списка и нажав кнопку "Найти!".
*Определитесь, кто Вы:
Внимание! Время в таблицах - всемирное. Для получения местного времени необходимо прибавить поправку, которая равна 1 ч.
Смотрите также архив погоды в соседних городах и на ближайших метеорологических станциях:
Партнеры нашего сайта:      
Пояснения к столбцам:
  • Ветер - указаны скорость ветра в м/с - средняя за 10 мин, порывы в срок и между сроками (в фигурных скобках) и направление, откуда дует ветер: С - северный,
  • СВ - северо-восточный, В - восточный, ЮВ - юго-восточный, Ю - южный, ЮЗ - юго-западный, З - западный, СЗ - северо-западный.
  • Видимость - горизонтальная дальность видимости в метрах или километрах. При видимости от 1 до 10 км при отсутствии осадков обычно наблюдается дымка, при ухудшении видимости до 1 км и менее - туман. В сухую погоду видимость может ухудшаться дымом, пылью или мглою.
  • Явления - указаны атмосферные явления, наблюдавшиеся в срок или в последний час перед сроком; фигурными скобками обозначены явления, наблюдавшиеся между сроками (за 1-3 часа до срока); квадратными скобками обозначены град или гололедные отложения с указанием их диаметра в мм.
  • Облачность - указаны через наклонную черту общая и нижняя облачность в баллах и высота нижней границы облаков в метрах; квадратными скобками обозначены формы облаков: Ci - перистые, Cs - перисто-слоистые, Cc - перисто-кучевые, Ac - высококучевые, As - высокослоистые, Sc - слоисто-кучевые, Ns - слоисто-дождевые, Cu - кучевые, Cb - кучево-дождевые. Подробнее классификацию облаков см. в Атласе облаков (PDF).
  • T - Температура воздуха - температура, измеренная на высоте 2 м над землей.
  • Td - Температура точки росы - температура, при понижении до которой содержащийся в воздухе водяной пар достигнет насыщения.
  • f - Относительная влажность воздуха - влажноcть воздуха, измеренная на высоте 2 м над землей.
  • Te - Эффективная температура - температура, которую ощущает одетый по сезону человек в тени. Характеристика душности погоды. При расчете учитывается влияние влажности воздуха и скорости ветра на теплоощущения человека.
  • Tes - Эффективная температура на солнце - температура, которую ощущает человек, с поправкой на солнечный нагрев. Характеристика знойности погоды. Зависит от высоты солнца над горизонтом, облачности и скорости ветра. Ночью, в пасмурную погоду, а также при ветре 12 м/с и более поправка равна нулю.
  • P - Атмосферное давление - приведенное к уровню моря атмосферное давление.
  • Po - Атмосферное давление - измеренное на уровне метеостанции атмосферное давление.
  • Tmin - Минимальная температура - минимум температуры воздуха на высоте 2 м над землей.
  • Tmax - Максимальная температура - максимум температуры воздуха на высоте 2 м над землей.
  • R - Количество осадков - Количество выпавших осадков за период времени, мм. При наведении курсора мыши на число - период времени, за который выпало указанное количество осадков.
  • R24 - Количество осадков - Количество выпавших осадков за 24 часа, мм.
  • S - Снежный покров - Высота снежного покрова, см. При наведении курсора мыши на число - состояние снежного покрова и степень покрытия местности в баллах.